Regional Weather Roundup
Issued by NWS Cleveland, OH

Home | Current Version | Previous Version | Text Only | Print | Product List | Glossary On
Versions: 1 2 3 4 5 6 7 8 9 10 11 12 13 14 15 16 17 18 19 20 21 22 23 24 25 26 27 28 29 30 31 32 33 34 35 36 37 38 39 40 41 42 43 44 45 46 47 48 49 50
000
ASUS41 KCLE 262312
RWRCLE
OHIO REGIONAL WEATHER ROUNDUP
NATIONAL WEATHER SERVICE WILMINGTON, OH
700 PM EDT MON SEP 26 2016

NOTE: "FAIR" INDICATES FEW OR NO CLOUDS BELOW 12,000 FEET WITH NO
SIGNIFICANT WEATHER AND/OR OBSTRUCTIONS TO VISIBILITY.

OHZ001>008-015>018-024>027-034-035-043-044-270000-
   NORTHWEST OHIO

CITY           SKY/WX    TMP DP  RH WIND       PRES   REMARKS
DEFIANCE       FAIR      68  37  32 VRB6      29.94R
FINDLAY        FAIR      66  40  38 SW9       29.94S
TOLEDO EXPRESS FAIR      66  41  40 W13       29.92R
TOLEDO EXEC    FAIR      67  44  43 SW10      29.93R
LIMA           FAIR      65  43  44 W10       29.97R
$$

OHZ009>014-019>023-028>033-038-089-270000-
   NORTHEAST OHIO

CITY           SKY/WX    TMP DP  RH WIND       PRES   REMARKS
CLE-HOPKINS    MOCLDY    65  48  54 W9        29.95R
CLE-LAKEFRONT  FAIR      65  50  58 SW13      29.93R
CUY CO. ARPT   PTCLDY    64  52  63 W14       29.94R
LORAIN-ELYRIA  FAIR      64  45  49 W8        29.95R
ASHTABULA      FAIR      61  60  97 SW6       29.94R
AKRON-CANTON   MOCLDY    62  56  80 SW6       29.97R
WOOSTER        FAIR      60  51  72 W5        29.97R
MANSFIELD      FAIR      62  47  57 SW6       29.97R
YOUNGSTOWN     MOCLDY    61  58  90 SW6       29.95R
$$

OHZ042-051>053-060>062-070>072-077>081-270000-
  SOUTHWEST OHIO

CITY           SKY/WX    TMP DP  RH WIND       PRES   REMARKS
CINC-COVINGTON MOCLDY    65  51  60 W5        30.03S
CINC-LUNKEN    FAIR      65  52  62 W8        30.03S
HAMILTON       FAIR      66  48  52 W7        30.03R
DAYTON         FAIR      65  45  48 W9        30.01S
WRIGHT-PAT AFB PTCLDY    65  48  54 SW8       30.00S
DAYTON GENERAL FAIR      67  46  47 W9        30.01R
WILMINGTON     FAIR      63  51  65 W9        30.02R
$$

OHZ036-037-039>041-045>050-054>059-063>069-073>076-082>088-270000-
  CENTRAL AND SOUTHEAST OHIO

CITY           SKY/WX    TMP DP  RH WIND       PRES   REMARKS
COLUMBUS       MOCLDY    64  49  57 W8        29.99R
OSU AIRPORT    FAIR      64  48  56 SW7       29.99R
BOLTON FIELD   CLEAR     63  48  59 W5        30.00R
RICKENBACK AFB FAIR      63  48  57 W6        30.00R
NEWARK         FAIR      62  52  69 W5        29.98S
MARION         FAIR      64  45  49 W13       29.98R
LANCASTER      FAIR      61  54  77 W3        30.00S
ZANESVILLE     FAIR      62  56  80 SW3       29.99S
NEW PHILLY     FAIR      62  58  86 CALM      29.98R
$$




USA.gov is the U.S. government's official web portal to all federal, state and local government web resources and services.